Flag for Norway Weather past 2 weeks in Bryne, Norway

Now
58 °F

Cool.


Feels Like: 56 °F
Forecast: 51 / 59 °F
Wind: 9 mph from South

Location: Obrestad

Current Time: Aug 1, 2015 at 7:07:32 PM

Latest Report: Aug 1, 2015 at 6:00 PM


Visibility: N/A

Pressure: 29.89 "Hg

Humidity: 90%

Dew point: 55 °F

Location of BryneLocation

Historic Weather in Bryne — Graph

°F

Bryne temperature yesterday

Maximum temperature yesterday: 54 °F (at 4:00 PM)
Minimum temperature yesterday: 49 °F (at 11:00 PM)
Average temperature yesterday: 52 °F

Past Weeks' High & Low Weather Summary

 TemperatureHumidityPressure
High61 °F (Jul 29, 4:00 PM)96% (Jul 18, 4:00 AM)29.98 "Hg (Jul 18, 4:00 AM)
Low48 °F (Jul 27, 7:00 AM)69% (Jul 23, 11:00 AM)29.38 "Hg (Jul 29, 8:00 AM)
Average55 °F85%29.70 "Hg
* Reported Jul 17 5:00 PM — Aug 1 5:00 PM, Bryne, Weather by CustomWeather, © 2015

Note: Actual official high and low records may vary slightly from our data, if they occured in-between our weather recording intervals... More about our weather records

Advertising

Bryne weather history for previous 24 hours

 ConditionsComfort  
Time TempWeatherWind HumidityBarometerVisibility
5:00 PM
Sat, Aug 1
55 °FCool.10 mph90%29.89 "HgN/A
4:00 PM55 °FCool.8 mph89%29.90 "HgN/A
3:00 PM53 °FCool.2 mph91%29.92 "HgN/A
2:00 PM52 °FCool.9 mph90%29.93 "HgN/A
1:00 PM56 °FCool.13 mph87%29.92 "HgN/A
12:00 PM57 °FCool.10 mph82%29.90 "HgN/A
11:00 AM55 °FCool.10 mph91%29.92 "HgN/A
10:00 AM56 °FCool.8 mph83%29.92 "HgN/A
9:00 AM54 °FCool.8 mph86%29.93 "HgN/A
8:00 AM54 °FCool.7 mph85%29.93 "HgN/A
7:00 AM53 °FCool.7 mph84%29.93 "HgN/A
4:00 AM51 °FCool.5 mph78%29.96 "HgN/A
3:00 AM51 °FCool.5 mph77%29.96 "HgN/A
2:00 AM50 °FCool.3 mph77%29.97 "HgN/A
1:00 AM50 °FCool.2 mph79%29.97 "HgN/A
12:00 AM49 °FCool.2 mph82%29.97 "HgN/A
11:00 PM
Fri, Jul 31
49 °FCool.1 mph80%29.97 "HgN/A
10:00 PM50 °FCool.2 mph75%29.97 "HgN/A
9:00 PM53 °FCool.3 mph70%29.98 "HgN/A
8:00 PM53 °FCool.5 mph70%29.98 "HgN/A
7:00 PM54 °FCool.6 mph69%29.98 "HgN/A
Weather by CustomWeather, © 2015

See weather overviewHow to use our weather pages